This is the latest recevied weather packets stored in our database for station/object K0NV. If no packets are shown the sender has not sent any weather packets the latest 10 day(s).
| Time | Temp. | Humidity | Pressure | Rain* | Wind** | Luminosity | Snow |
|---|---|---|---|---|---|---|---|
| 1777974853 | 14.44° C | 99% | 1006 hPa | 0 mm | - | 0 W/m² | - |
| 1777974549 | 14.44° C | 99% | 1006.2 hPa | 0 mm | - | 0 W/m² | - |
| 1777974246 | 14.44° C | 99% | 1006.2 hPa | 0 mm | - | 0 W/m² | - |
| 1777973941 | 14.44° C | 99% | 1006 hPa | 0 mm | - | 0 W/m² | - |
| 1777973639 | 14.44° C | 99% | 1006 hPa | 0 mm | - | 0 W/m² | - |
| 1777973336 | 15° C | 98% | 1006 hPa | 1.27 mm | - | 0 W/m² | - |
| 1777973034 | 15° C | 98% | 1005.8 hPa | 1.27 mm | - | 0 W/m² | - |
| 1777972731 | 15° C | 98% | 1005.4 hPa | 0 mm | - | 0 W/m² | - |
| 1777972429 | 15° C | 98% | 1005.4 hPa | 0 mm | - | 0 W/m² | - |
| 1777972127 | 14.44° C | 98% | 1005.1 hPa | 0 mm | - | 0 W/m² | - |
| 1777971825 | 14.44° C | 98% | 1005.3 hPa | 0 mm | - | 0 W/m² | - |
| 1777971522 | 14.44° C | 99% | 1004.5 hPa | 0 mm | - | 0 W/m² | - |
| 1777971220 | 14.44° C | 99% | 1004.2 hPa | 1.78 mm | - | 0 W/m² | - |
| 1777970917 | 15° C | 99% | 1005 hPa | 3.05 mm | - | 0 W/m² | - |
| 1777970615 | 15° C | 99% | 1005.5 hPa | 3.05 mm | - | 0 W/m² | - |
| 1777970312 | 15.56° C | 99% | 1005.8 hPa | 3.05 mm | - | 0 W/m² | - |
| 1777970010 | 15.56° C | 99% | 1006.6 hPa | 3.05 mm | - | 0 W/m² | - |
| 1777969706 | 15.56° C | 99% | 1007 hPa | 4.83 mm | - | 0 W/m² | - |
| 1777969403 | 15.56° C | 99% | 1007.3 hPa | 6.1 mm | - | 0 W/m² | - |
| 1777969099 | 15.56° C | 99% | 1007.2 hPa | 4.83 mm | - | 0 W/m² | - |
| 1777968796 | 15.56° C | 99% | 1007.5 hPa | 3.05 mm | - | 0 W/m² | - |
| 1777968493 | 15.56° C | 99% | 1007.1 hPa | 4.32 mm | - | 0 W/m² | - |
| 1777968189 | 15.56° C | 99% | 1007.2 hPa | 4.32 mm | - | 0 W/m² | - |
| 1777967884 | 16.11° C | 99% | 1007.5 hPa | 4.32 mm | - | 0 W/m² | - |
| 1777967582 | 15.56° C | 99% | 1007.5 hPa | 3.05 mm | - | 0 W/m² | - |
* Rain latest hour (hover to see other rain measurements)
** Current wind speed in m/s (hover to see current wind gust speed)